| time (UTC) | temp F | wind direction | speed MPH | gust MPH | rain 1hr in | rain 24hr in | rain mn in | humidity % | barometer mb |
| 20260503190030 | 55 | 11 | 11.0 | 20.0 | 0.00 | 0.00 | 0.00 | 41 | 1012.5 |
| 20260503184528 | 55 | 40 | 12.0 | 19.0 | 0.00 | 0.00 | 0.00 | 41 | 1012.7 |
| 20260503183030 | 54 | 79 | 12.0 | 19.0 | 0.00 | 0.00 | 0.00 | 42 | 1012.8 |
| 20260503181530 | 53 | 52 | 4.0 | 18.0 | 0.00 | 0.00 | 0.00 | 42 | 1012.8 |
| 20260503180028 | 52 | 78 | 10.0 | 19.0 | 0.00 | 0.00 | 0.00 | 42 | 1013.1 |
| 20260503174527 | 53 | 66 | 11.0 | 19.0 | 0.00 | 0.00 | 0.00 | 46 | 1013.1 |
| 20260503173030 | 53 | 51 | 12.0 | 21.0 | 0.00 | 0.00 | 0.00 | 40 | 1013.1 |
| 20260503171526 | 53 | 38 | 10.0 | 22.0 | 0.00 | 0.00 | 0.00 | 44 | 1013.1 |
| 20260503081528 | 37 | 68 | 2.0 | 8.0 | 0.00 | 0.00 | 0.00 | 68 | 1013.1 |
| 20260503071526 | 37 | 130 | 3.0 | 12.0 | 0.00 | 0.00 | 0.00 | 66 | 1012.9 |
| 20260503054534 | 38 | 0 | 0.0 | 3.0 | 0.00 | 0.03 | 0.00 | 65 | 1012.9 |
| 20260503053033 | 38 | 96 | 0.0 | 6.0 | 0.00 | 0.03 | 0.00 | 65 | 1013.1 |
| 20260503051527 | 39 | 61 | 1.0 | 3.0 | 0.00 | 0.03 | 0.00 | 66 | 1013.1 |
| 20260503050037 | 39 | 88 | 1.0 | 4.0 | 0.00 | 0.03 | 0.00 | 66 | 1013.2 |
| 20260503044528 | 39 | 42 | 0.0 | 2.0 | 0.00 | 0.05 | 0.00 | 67 | 1013.2 |
| 20260503043031 | 40 | 0 | 1.0 | 3.0 | 0.00 | 0.05 | 0.00 | 67 | 1013.2 |
| 20260503041537 | 40 | 0 | 0.0 | 3.0 | 0.00 | 0.05 | 0.00 | 64 | 1013.3 |
| 20260503040029 | 41 | 47 | 2.0 | 6.0 | 0.00 | 0.05 | 0.00 | 63 | 1013.4 |
| 20260503034531 | 41 | 67 | 2.0 | 9.0 | 0.00 | 0.05 | 0.05 | 62 | 1013.4 |
| 20260503033033 | 41 | 74 | 4.0 | 10.0 | 0.00 | 0.05 | 0.05 | 63 | 1013.5 |
| 20260503031531 | 41 | 30 | 2.0 | 6.0 | 0.00 | 0.05 | 0.05 | 67 | 1013.5 |
| 20260503030036 | 41 | 43 | 2.0 | 4.0 | 0.00 | 0.05 | 0.05 | 70 | 1013.5 |
| 20260503024530 | 41 | 73 | 2.0 | 5.0 | 0.00 | 0.05 | 0.05 | 72 | 1013.6 |
| 20260503023031 | 41 | 78 | 3.0 | 6.0 | 0.00 | 0.05 | 0.05 | 71 | 1013.6 |
| 20260503021529 | 41 | 56 | 4.0 | 9.0 | 0.00 | 0.05 | 0.05 | 71 | 1013.6 |
| 20260503020030 | 41 | 32 | 3.0 | 8.0 | 0.00 | 0.05 | 0.05 | 72 | 1013.5 |
| 20260503014530 | 41 | 32 | 4.0 | 9.0 | 0.00 | 0.08 | 0.05 | 72 | 1013.4 |
| 20260503013032 | 41 | 63 | 4.0 | 9.0 | 0.00 | 0.08 | 0.05 | 73 | 1013.4 |
| 20260503011530 | 42 | 42 | 5.0 | 11.0 | 0.00 | 0.08 | 0.05 | 73 | 1013.3 |
| 20260503010032 | 42 | 55 | 4.0 | 9.0 | 0.00 | 0.08 | 0.05 | 72 | 1013.3 |
| 20260503004528 | 42 | 67 | 2.0 | 9.0 | 0.00 | 0.10 | 0.05 | 71 | 1013.2 |
| 20260503003028 | 42 | 86 | 2.0 | 7.0 | 0.00 | 0.10 | 0.05 | 70 | 1012.9 |
| 20260503001528 | 42 | 89 | 3.0 | 9.0 | 0.00 | 0.10 | 0.05 | 69 | 1012.8 |
| 20260503000029 | 42 | 96 | 2.0 | 6.0 | 0.00 | 0.10 | 0.05 | 70 | 1012.8 |
| 20260502234532 | 43 | 66 | 3.0 | 7.0 | 0.00 | 0.11 | 0.05 | 70 | 1012.8 |
| 20260502233029 | 43 | 80 | 2.0 | 7.0 | 0.00 | 0.11 | 0.05 | 69 | 1012.7 |
| 20260502231527 | 43 | 0 | 2.0 | 8.0 | 0.00 | 0.11 | 0.05 | 72 | 1012.7 |
| 20260502230034 | 43 | 83 | 2.0 | 4.0 | 0.00 | 0.11 | 0.05 | 70 | 1012.6 |
| 20260502224532 | 44 | 52 | 3.0 | 7.0 | 0.00 | 0.11 | 0.05 | 69 | 1012.5 |
| 20260502223028 | 44 | 80 | 4.0 | 8.0 | 0.00 | 0.11 | 0.05 | 70 | 1012.5 |
| 20260502221532 | 44 | 134 | 0.0 | 5.0 | 0.00 | 0.11 | 0.05 | 71 | 1012.4 |
| 20260502220030 | 44 | 63 | 3.0 | 6.0 | 0.00 | 0.11 | 0.05 | 72 | 1012.5 |
| 20260502214528 | 43 | 110 | 4.0 | 7.0 | 0.00 | 0.12 | 0.05 | 70 | 1012.4 |
| 20260502213030 | 43 | 116 | 4.0 | 9.0 | 0.00 | 0.12 | 0.05 | 71 | 1012.4 |
| 20260502211530 | 43 | 112 | 4.0 | 10.0 | 0.00 | 0.12 | 0.05 | 71 | 1012.4 |
| 20260502210030 | 43 | 103 | 3.0 | 11.0 | 0.00 | 0.12 | 0.05 | 73 | 1012.3 |
| 20260502204530 | 43 | 0 | 2.0 | 8.0 | 0.00 | 0.18 | 0.05 | 72 | 1012.3 |
| 20260502203029 | 43 | 38 | 4.0 | 11.0 | 0.00 | 0.18 | 0.05 | 71 | 1012.4 |
| 20260502201530 | 44 | 121 | 4.0 | 11.0 | 0.00 | 0.18 | 0.05 | 70 | 1012.3 |
| 20260502200028 | 46 | 106 | 2.0 | 8.0 | 0.00 | 0.18 | 0.05 | 61 | 1012.2 |
| 20260502194528 | 46 | 25 | 4.0 | 6.0 | 0.00 | 0.18 | 0.05 | 60 | 1012.3 |
| 20260502193030 | 46 | 360 | 2.0 | 8.0 | 0.00 | 0.18 | 0.05 | 62 | 1012.4 |
| 20260502191529 | 46 | 113 | 4.0 | 9.0 | 0.00 | 0.18 | 0.05 | 58 | 1012.7 |